Regional Weather Roundup
Issued by NWS

Home | Current Version | Previous Version | Graphics & Text | Print | Product List | Glossary On
Versions: 1 2 3 4 5 6 7 8 9 10 11 12 13 14 15 16 17 18 19 20 21 22 23 24 25 26 27 28 29 30 31 32 33 34 35 36 37 38 39 40 41 42 43 44 45 46 47 48 49 50
000
ASUS43 KOAX 250110
RWRNE

WEATHER ROUNDUP FOR NEBRASKA
NATIONAL WEATHER SERVICE OMAHA NE
800 PM CDT FRI OCT 24 2014

NOTES: SATELLITE DATA IS BEING USED TO AUGMENT CLOUD COVER ABOVE
       12000 FEET.
       "FAIR" INDICATES FEW OR NO CLOUDS BELOW 12,000 FEET WITH NO
       SIGNIFICANT WEATHER AND/OR OBSTRUCTIONS TO VISIBILITY.

  * THESE STATIONS DO NOT REPORT WEATHER SUCH AS RAIN...SNOW OR FOG.

NEZ001>004-019>022-054>056-250200-
NEBRASKA PANHANDLE

CITY           SKY/WX    TMP DP  RH WIND       PRES   REMARKS
SCOTTSBLUFF    CLEAR     58  32  37 NW7       30.05R
ALLIANCE       CLEAR     57  36  45 E3        30.04R
CHADRON        CLEAR     57  39  51 N3        30.04R
KIMBALL        CLEAR     59  28  31 SW9       30.13R
SIDNEY         CLEAR     56  35  45 S6        30.11R
$$

NEZ057>060-069>072-079>082-250200-
SOUTHWEST NEBRASKA

CITY           SKY/WX    TMP DP  RH WIND       PRES   REMARKS
NORTH PLATTE   CLEAR     58  37  45 CALM      30.02R
IMPERIAL       CLEAR     64  35  34 NE7       30.05R
LEXINGTON      CLEAR     63  41  45 CALM      30.00R
MCCOOK         CLEAR     69  31  24 NW3       30.02R
OGALLALA       CLEAR     54  38  53 CALM      30.04S
$$

NEZ005>010-023>029-035>040-094-250200-
NORTH CENTRAL NEBRASKA

CITY           SKY/WX    TMP DP  RH WIND       PRES   REMARKS
VALENTINE      CLEAR     62  35  36 N7        30.01R
AINSWORTH      CLEAR     57  36  45 E5        30.02R
BROKEN BOW     CLEAR     57  40  52 N3        30.00R
O`NEILL        CLEAR     63  39  41 SE3       30.00R
ORD            CLEAR     53  43  68 CALM      29.99R
THEDFORD       CLEAR     63  35  34 CALM      30.03R
$$

NEZ041-046>049-061>064-073>077-083>087-250200-
SOUTH CENTRAL NEBRASKA

CITY           SKY/WX    TMP DP  RH WIND       PRES   REMARKS
GRAND ISLAND   CLEAR     57  47  69 NE7       30.00R
AURORA         CLEAR     61  47  60 N6        29.99R
HASTINGS       CLEAR     61  47  59 CALM      29.99R
HEBRON         CLEAR     63  50  63 CALM      29.97R
HOLDREGE       CLEAR     63  34  33 CALM      30.00R
KEARNEY *      CLEAR     61  46  59 N6        30.01R
YORK           CLEAR     59  52  77 N6        29.99R
$$

NEZ011>018-030>034-042>045-250200-
NORTHEAST NEBRASKA

CITY           SKY/WX    TMP DP  RH WIND       PRES   REMARKS
NORFOLK        CLEAR     55  47  74 SW3       29.98R
ALBION         CLEAR     55  42  62 CALM      30.00R
BLAIR          CLEAR     67  52  58 W5        29.96R
COLUMBUS *     CLEAR     55  46  71 NW6       30.00R
FREMONT        CLEAR     61  54  78 CALM      29.97R
TEKAMAH        PTCLDY    60  49  66 W3        29.95R
WAYNE          PTCLDY    55  45  69 SW5       29.98R
$$

NEZ050>053-065>068-078-088>093-250200-
SOUTHEAST NEBRASKA

CITY           SKY/WX    TMP DP  RH WIND       PRES   REMARKS
LINCOLN        CLEAR     62  53  72 CALM      29.97R
OMAHA EPPLEY   PTCLDY    62  57  83 CALM      29.95R
BEATRICE       CLEAR     64  56  76 CALM      29.96R
FALLS CITY     CLEAR     70  61  73 NW3       29.94R
NEBRASKA CITY  CLEAR     66  56  69 N6        29.96R
PLATTSMOUTH    CLEAR     63  56  79 NW3       29.96R
$$

NEZ044-045-051>053-067-250200-
OMAHA AREA

CITY           SKY/WX    TMP DP  RH WIND       PRES   REMARKS
OMAHA EPPLEY   PTCLDY    62  57  83 CALM      29.95R
BLAIR          CLEAR     67  52  58 W5        29.96R
FREMONT        CLEAR     61  54  78 CALM      29.97R
MILLARD        CLEAR     60  58  90 CALM      29.95R
OFFUTT AFB     CLEAR     57  57 100 CALM      29.94R
PLATTSMOUTH    CLEAR     63  56  79 NW3       29.96R
WAHOO          FAIR      61  48  63 N5        29.96R
$$



USA.gov is the U.S. government's official web portal to all federal, state and local government web resources and services.